Location: Igon
(43.1667°N, 0.2333°W)
Time: 17:15:03
(UTC+00:00)

Cosmos 1408 Rocket - Visible Passes

Search period start: 12 April 2021 00:00
Search period end: 22 April 2021 00:00
Orbit: 600 x 632 km, 82.6° (Epoch: 11 April)

Date Brightness Start Highest point End Pass type
(mag) Time Alt. Az. Time Alt. Az. Time Alt. Az.
12 Apr 6.1 22:04:07 10° NNE 22:04:51 13° NNE 22:04:51 13° NNE visible
12 Apr 6.6 23:41:42 10° NNW 23:41:57 11° NNW 23:41:57 11° NNW visible
13 Apr 5.9 22:20:01 10° N 22:21:13 18° NNE 22:21:13 18° NNE visible
14 Apr 5.9 22:36:10 10° N 22:37:36 21° N 22:37:36 21° N visible
15 Apr 6.0 21:16:28 10° NE 21:16:53 11° NE 21:16:53 11° NE visible
15 Apr 6.0 22:52:33 10° NNW 22:53:59 20° NNW 22:53:59 20° NNW visible
16 Apr 5.6 21:31:43 10° NNE 21:33:17 17° NE 21:33:17 17° NE visible
16 Apr 6.2 23:09:12 10° NNW 23:10:23 17° NW 23:10:23 17° NW visible
17 Apr 5.3 21:47:34 10° N 21:49:42 25° NNE 21:49:42 25° NNE visible
17 Apr 6.4 23:26:15 10° NW 23:26:47 12° NW 23:26:47 12° NW visible
18 Apr 5.0 22:03:42 10° N 22:06:07 32° N 22:06:07 32° N visible
19 Apr 5.7 20:44:08 10° NE 20:45:28 12° ENE 20:45:28 12° ENE visible
19 Apr 5.2 22:20:04 10° NNW 22:22:33 32° NNW 22:22:33 32° NNW visible
20 Apr 5.2 20:59:19 10° NNE 21:01:55 21° NE 21:01:55 21° NE visible
20 Apr 5.5 22:36:41 10° NNW 22:39:01 25° NW 22:39:01 25° NW visible
21 Apr 4.5 21:15:08 10° N 21:18:23 35° NE 21:18:23 35° NE visible
21 Apr 6.0 22:53:41 10° NW 22:55:29 17° WNW 22:55:29 17° WNW visible
